Time,TemperatureF,DewpointF,PressureIn,WindDirection,WindDirectionDegrees,WindSpeedMPH,WindSpeedGustMPH,Humidity,HourlyPrecipIn,Conditions,Clouds,dailyrainin,SoftwareType,DateUTC
2013-10-21 00:07:00,80.8,71.3,0.00,South,180,0.0,0.0,67,0.00,,,-99.99,Homeseer,2013-10-21 04:07:00,
2013-10-21 00:17:00,80.8,71.6,0.00,South,180,0.0,0.0,68,0.00,,,-99.99,Homeseer,2013-10-21 04:17:00,
2013-10-21 00:27:00,80.8,71.6,0.00,South,180,1.3,0.0,68,0.00,,,-99.99,Homeseer,2013-10-21 04:27:00,
2013-10-21 00:37:00,81.0,71.5,0.00,SSE,157,1.3,0.0,67,0.00,,,-99.99,Homeseer,2013-10-21 04:37:00,
2013-10-21 00:47:00,81.0,71.1,0.00,South,180,0.0,0.0,66,0.00,,,-99.99,Homeseer,2013-10-21 04:47:00,
2013-10-21 00:57:00,81.0,70.8,0.00,North,0,0.0,0.0,65,0.00,,,-99.99,Homeseer,2013-10-21 04:57:00,
2013-10-21 01:07:00,81.0,70.4,0.00,North,0,0.9,0.0,64,0.00,,,-99.99,Homeseer,2013-10-21 05:07:00,
2013-10-21 01:17:00,81.1,72.6,0.00,South,180,0.0,0.0,70,0.00,,,-99.99,Homeseer,2013-10-21 05:17:00,
2013-10-21 01:27:00,81.0,74.1,0.00,North,0,0.0,0.0,75,0.00,,,-99.99,Homeseer,2013-10-21 05:27:00,
2013-10-21 01:37:00,81.0,74.7,0.00,South,180,0.9,0.0,77,0.00,,,-99.99,Homeseer,2013-10-21 05:37:00,
2013-10-21 01:47:00,81.0,75.0,0.00,North,0,0.0,0.0,78,0.00,,,-99.99,Homeseer,2013-10-21 05:47:00,
2013-10-21 01:57:00,81.0,75.3,0.00,North,0,0.0,0.0,79,0.00,,,-99.99,Homeseer,2013-10-21 05:57:00,
2013-10-21 02:07:00,80.8,75.1,0.00,South,180,0.0,0.0,79,0.00,,,-99.99,Homeseer,2013-10-21 06:07:00,
2013-10-21 02:17:00,80.8,74.5,0.00,NNE,22,0.0,0.0,77,0.00,,,-99.99,Homeseer,2013-10-21 06:17:00,
2013-10-21 02:27:00,80.6,74.6,0.00,WNW,297,0.0,0.0,78,0.00,,,-99.99,Homeseer,2013-10-21 06:27:00,
2013-10-21 02:37:00,80.6,74.6,0.00,WSW,247,0.0,2.5,78,0.00,,,-99.99,Homeseer,2013-10-21 06:37:00,
2013-10-21 02:47:00,80.6,74.9,0.00,ESE,112,0.0,0.0,79,0.00,,,-99.99,Homeseer,2013-10-21 06:47:00,
2013-10-21 02:57:00,80.4,75.0,0.00,WSW,247,0.0,0.0,80,0.00,,,-99.99,Homeseer,2013-10-21 06:57:00,
2013-10-21 03:07:00,80.4,74.7,0.00,WSW,247,0.0,0.0,79,0.00,,,-99.99,Homeseer,2013-10-21 07:07:00,
2013-10-21 03:17:00,80.4,74.7,0.00,North,0,0.0,0.0,79,0.00,,,-99.99,Homeseer,2013-10-21 07:17:00,
2013-10-21 03:27:00,80.4,74.4,0.00,South,180,0.0,0.0,78,0.00,,,-99.99,Homeseer,2013-10-21 07:27:00,
2013-10-21 03:37:00,80.6,74.9,0.00,North,0,0.0,0.0,79,0.00,,,-99.99,Homeseer,2013-10-21 07:37:00,
2013-10-21 03:47:00,80.6,75.2,0.00,South,180,0.0,0.0,80,0.00,,,-99.99,Homeseer,2013-10-21 07:47:00,
2013-10-21 03:57:00,80.6,75.2,0.00,South,180,0.0,0.0,80,0.00,,,-99.99,Homeseer,2013-10-21 07:57:00,
2013-10-21 04:07:00,80.6,75.2,0.00,SSE,157,0.0,0.0,80,0.00,,,-99.99,Homeseer,2013-10-21 08:07:00,
2013-10-21 04:17:00,80.6,75.2,0.00,SSE,157,0.0,0.0,80,0.00,,,-99.99,Homeseer,2013-10-21 08:17:00,
2013-10-21 04:27:00,80.6,75.2,0.00,WSW,247,0.0,0.0,80,0.00,,,-99.99,Homeseer,2013-10-21 08:27:00,
2013-10-21 04:37:00,80.6,75.2,0.00,South,180,0.0,0.0,80,0.00,,,-99.99,Homeseer,2013-10-21 08:37:00,
2013-10-21 04:47:00,80.6,75.8,0.00,SSE,157,1.1,1.1,82,0.00,,,-99.99,Homeseer,2013-10-21 08:47:00,
2013-10-21 04:57:00,80.6,74.9,0.00,WSW,247,0.0,0.0,79,0.00,,,-99.99,Homeseer,2013-10-21 08:57:00,
2013-10-21 05:07:00,80.6,73.7,0.00,SSE,157,0.0,0.0,75,0.00,,,-99.99,Homeseer,2013-10-21 09:07:00,
2013-10-21 05:17:00,80.6,73.1,0.00,South,180,0.0,0.0,73,0.00,,,-99.99,Homeseer,2013-10-21 09:17:00,
2013-10-21 05:27:00,80.6,72.8,0.00,South,180,1.1,0.0,72,0.00,,,-99.99,Homeseer,2013-10-21 09:27:00,
2013-10-21 05:37:00,80.6,72.4,0.00,North,0,0.0,0.0,71,0.00,,,-99.99,Homeseer,2013-10-21 09:37:00,
2013-10-21 05:47:00,80.6,72.4,0.00,SSE,157,0.0,0.0,71,0.00,,,-99.99,Homeseer,2013-10-21 09:47:00,
2013-10-21 05:57:00,80.4,72.9,0.00,South,180,2.0,0.0,73,0.00,,,-99.99,Homeseer,2013-10-21 09:57:00,
2013-10-21 06:07:00,80.4,72.9,0.00,North,0,0.0,0.0,73,0.00,,,-99.99,Homeseer,2013-10-21 10:07:00,
2013-10-21 06:17:00,80.4,72.9,0.00,North,0,0.0,1.3,73,0.00,,,-99.99,Homeseer,2013-10-21 10:17:00,
2013-10-21 06:27:00,80.4,73.2,0.00,South,180,0.9,0.0,74,0.00,,,-99.99,Homeseer,2013-10-21 10:27:00,
2013-10-21 06:37:00,80.4,73.5,0.00,North,0,2.5,0.0,75,0.00,,,-99.99,Homeseer,2013-10-21 10:37:00,
2013-10-21 06:47:00,80.4,73.8,0.00,North,0,2.2,0.0,76,0.00,,,-99.99,Homeseer,2013-10-21 10:47:00,
2013-10-21 06:57:00,80.6,74.3,0.00,West,270,0.0,0.0,77,0.00,,,-99.99,Homeseer,2013-10-21 10:57:00,
2013-10-21 07:07:00,80.6,74.6,0.00,SSE,157,0.0,0.0,78,0.00,,,-99.99,Homeseer,2013-10-21 11:07:00,
2013-10-21 07:17:00,80.6,74.6,0.00,North,0,0.0,0.0,78,0.00,,,-99.99,Homeseer,2013-10-21 11:17:00,
2013-10-21 07:27:00,80.6,74.6,0.00,WSW,247,0.0,0.0,78,0.00,,,-99.99,Homeseer,2013-10-21 11:27:00,
2013-10-21 07:37:00,80.6,74.6,0.00,WNW,297,0.0,0.0,78,0.00,,,-99.99,Homeseer,2013-10-21 11:37:00,
2013-10-21 07:47:00,80.8,74.8,0.00,ENE,67,0.0,0.0,78,0.00,,,-99.99,Homeseer,2013-10-21 11:47:00,
2013-10-21 07:57:00,81.0,74.7,0.00,ENE,67,0.0,1.3,77,0.00,,,-99.99,Homeseer,2013-10-21 11:57:00,
2013-10-21 08:07:00,81.1,74.8,0.00,North,0,0.0,0.0,77,0.00,,,-99.99,Homeseer,2013-10-21 12:07:00,
2013-10-21 08:17:00,81.3,74.4,0.00,South,180,0.0,0.0,75,0.00,,,-99.99,Homeseer,2013-10-21 12:17:00,
2013-10-21 08:27:00,81.7,74.4,0.00,SSE,157,1.3,0.0,74,0.00,,,-99.99,Homeseer,2013-10-21 12:27:00,
2013-10-21 08:37:00,81.9,74.3,0.00,North,0,0.0,0.0,73,0.00,,,-99.99,Homeseer,2013-10-21 12:37:00,
2013-10-21 08:47:00,82.2,74.3,0.00,South,180,1.1,1.3,72,0.00,,,-99.99,Homeseer,2013-10-21 12:47:00,
2013-10-21 08:57:00,82.4,73.8,0.00,South,180,0.0,0.0,70,0.00,,,-99.99,Homeseer,2013-10-21 12:57:00,
2013-10-21 09:07:00,82.8,73.9,0.00,South,180,0.0,0.0,69,0.00,,,-99.99,Homeseer,2013-10-21 13:07:00,
2013-10-21 09:17:00,83.1,74.1,0.00,South,180,0.0,0.9,69,0.00,,,-99.99,Homeseer,2013-10-21 13:17:00,
2013-10-21 09:27:00,83.5,73.8,0.00,WSW,247,0.0,4.5,67,0.00,,,-99.99,Homeseer,2013-10-21 13:27:00,
2013-10-21 09:37:00,84.0,73.9,0.00,South,180,0.0,0.0,66,0.00,,,-99.99,Homeseer,2013-10-21 13:37:00,
2013-10-21 09:47:00,84.4,74.0,0.00,South,180,0.0,1.6,65,0.00,,,-99.99,Homeseer,2013-10-21 13:47:00,
2013-10-21 09:57:00,84.7,73.9,0.00,South,180,1.1,1.3,64,0.00,,,-99.99,Homeseer,2013-10-21 13:57:00,
2013-10-21 10:07:00,85.3,74.1,0.00,South,180,0.0,2.9,63,0.00,,,-99.99,Homeseer,2013-10-21 14:07:00,
2013-10-21 10:17:00,85.5,73.9,0.00,SSE,157,2.5,4.7,62,0.00,,,-99.99,Homeseer,2013-10-21 14:17:00,
2013-10-21 10:27:00,85.5,73.5,0.00,North,0,2.5,0.0,61,0.00,,,-99.99,Homeseer,2013-10-21 14:27:00,
2013-10-21 10:37:00,86.2,73.4,0.00,South,180,2.5,2.5,59,0.00,,,-99.99,Homeseer,2013-10-21 14:37:00,
2013-10-21 10:47:00,86.4,73.1,0.00,SSE,157,1.3,0.0,58,0.00,,,-99.99,Homeseer,2013-10-21 14:47:00,
2013-10-21 10:57:00,86.5,73.2,0.00,South,180,2.2,3.4,58,0.00,,,-99.99,Homeseer,2013-10-21 14:57:00,
2013-10-21 11:07:00,86.9,72.8,0.00,South,180,2.2,2.5,56,0.00,,,-99.99,Homeseer,2013-10-21 15:07:00,
2013-10-21 11:17:00,87.1,72.6,0.00,South,180,1.6,6.0,55,0.00,,,-99.99,Homeseer,2013-10-21 15:17:00,
2013-10-21 11:27:00,87.4,72.8,0.00,North,0,2.5,2.5,55,0.00,,,-99.99,Homeseer,2013-10-21 15:27:00,
2013-10-21 11:37:00,87.6,72.1,0.00,South,180,1.3,4.0,53,0.00,,,-99.99,Homeseer,2013-10-21 15:37:00,
2013-10-21 11:47:00,88.0,72.1,0.00,South,180,2.7,0.0,52,0.00,,,-99.99,Homeseer,2013-10-21 15:47:00,
2013-10-21 11:57:00,88.2,71.8,0.00,ESE,112,3.1,0.0,51,0.00,,,-99.99,Homeseer,2013-10-21 15:57:00,
2013-10-21 12:07:00,88.2,69.9,0.00,WSW,247,0.0,0.0,47,0.00,,,-99.99,Homeseer,2013-10-21 16:07:00,
2013-10-21 12:17:00,88.7,70.4,0.00,North,0,0.9,0.0,47,0.00,,,-99.99,Homeseer,2013-10-21 16:17:00,
2013-10-21 12:27:00,88.7,69.4,0.00,North,0,2.7,0.0,45,0.00,,,-99.99,Homeseer,2013-10-21 16:27:00,
2013-10-21 12:37:00,88.9,69.0,0.00,South,180,1.1,5.8,44,0.00,,,-99.99,Homeseer,2013-10-21 16:37:00,
2013-10-21 12:47:00,89.1,69.2,0.00,ESE,112,1.6,3.6,44,0.00,,,-99.99,Homeseer,2013-10-21 16:47:00,
2013-10-21 12:57:00,89.2,68.8,0.00,North,0,3.4,3.8,43,0.00,,,-99.99,Homeseer,2013-10-21 16:57:00,
2013-10-21 13:07:00,89.2,68.8,0.00,North,0,3.8,3.8,43,0.00,,,-99.99,Homeseer,2013-10-21 17:07:00,
2013-10-21 13:17:00,89.2,68.8,0.00,North,0,3.8,4.3,43,0.00,,,-99.99,Homeseer,2013-10-21 17:17:00,
2013-10-21 13:27:00,89.4,68.4,0.00,North,0,3.6,3.6,42,0.00,,,-99.99,Homeseer,2013-10-21 17:27:00,
2013-10-21 13:37:00,89.6,68.6,0.00,SSE,157,0.9,4.9,42,0.00,,,-99.99,Homeseer,2013-10-21 17:37:00,
2013-10-21 13:47:00,89.6,68.1,0.00,SSE,157,1.1,2.5,41,0.00,,,-99.99,Homeseer,2013-10-21 17:47:00,
2013-10-21 13:57:00,89.8,67.7,0.00,South,180,3.1,3.1,40,0.00,,,-99.99,Homeseer,2013-10-21 17:57:00,
2013-10-21 14:07:00,89.8,67.7,0.00,SW,225,3.1,3.1,40,0.00,,,-99.99,Homeseer,2013-10-21 18:07:00,
2013-10-21 14:17:00,89.6,66.9,0.00,South,180,1.1,1.3,39,0.00,,,-99.99,Homeseer,2013-10-21 18:17:00,
2013-10-21 14:27:00,89.6,66.9,0.00,SE,135,1.1,2.5,39,0.00,,,-99.99,Homeseer,2013-10-21 18:27:00,
2013-10-21 14:37:00,89.8,67.1,0.00,South,180,2.2,2.2,39,0.00,,,-99.99,Homeseer,2013-10-21 18:37:00,
2013-10-21 14:47:00,89.2,66.0,0.00,ESE,112,4.0,4.0,38,0.00,,,-99.99,Homeseer,2013-10-21 18:47:00,
2013-10-21 14:57:00,89.4,66.8,0.00,South,180,1.1,1.6,39,0.00,,,-99.99,Homeseer,2013-10-21 18:57:00,
2013-10-21 15:07:00,89.1,67.1,0.00,South,180,2.5,2.5,40,0.00,,,-99.99,Homeseer,2013-10-21 19:07:00,
2013-10-21 15:17:00,89.2,67.1,0.00,North,0,1.1,0.0,40,0.00,,,-99.99,Homeseer,2013-10-21 19:17:00,
2013-10-21 15:27:00,89.1,66.5,0.00,SSE,157,2.5,2.5,39,0.00,,,-99.99,Homeseer,2013-10-21 19:27:00,
2013-10-21 15:37:00,89.2,67.1,0.00,South,180,2.0,2.0,40,0.00,,,-99.99,Homeseer,2013-10-21 19:37:00,
2013-10-21 15:47:00,88.5,66.5,0.00,SSE,157,2.5,0.0,40,0.00,,,-99.99,Homeseer,2013-10-21 19:47:00,
2013-10-21 15:57:00,88.5,66.5,0.00,South,180,0.9,0.0,40,0.00,,,-99.99,Homeseer,2013-10-21 19:57:00,
2013-10-21 16:07:00,88.2,66.3,0.00,SSE,157,1.1,1.3,40,0.00,,,-99.99,Homeseer,2013-10-21 20:07:00,
2013-10-21 16:17:00,87.6,65.2,0.00,SSE,157,2.5,4.7,39,0.00,,,-99.99,Homeseer,2013-10-21 20:17:00,
2013-10-21 16:27:00,87.8,66.5,0.00,SSE,157,1.1,1.6,41,0.00,,,-99.99,Homeseer,2013-10-21 20:27:00,
2013-10-21 16:37:00,87.6,66.3,0.00,SSE,157,0.9,3.6,41,0.00,,,-99.99,Homeseer,2013-10-21 20:37:00,
2013-10-21 16:47:00,87.4,66.1,0.00,South,180,0.9,3.8,41,0.00,,,-99.99,Homeseer,2013-10-21 20:47:00,
2013-10-21 16:57:00,86.9,66.2,0.00,SE,135,0.9,2.0,42,0.00,,,-99.99,Homeseer,2013-10-21 20:57:00,
2013-10-21 17:07:00,86.9,66.2,0.00,South,180,1.6,3.1,42,0.00,,,-99.99,Homeseer,2013-10-21 21:07:00,
2013-10-21 17:17:00,87.1,66.9,0.00,South,180,0.0,1.6,43,0.00,,,-99.99,Homeseer,2013-10-21 21:17:00,
2013-10-21 17:27:00,86.9,66.2,0.00,SSE,157,2.2,0.0,42,0.00,,,-99.99,Homeseer,2013-10-21 21:27:00,
2013-10-21 17:37:00,86.5,66.4,0.00,South,180,2.5,2.5,43,0.00,,,-99.99,Homeseer,2013-10-21 21:37:00,
2013-10-21 17:47:00,86.2,66.1,0.00,South,180,1.6,1.6,43,0.00,,,-99.99,Homeseer,2013-10-21 21:47:00,
2013-10-21 17:57:00,85.8,66.3,0.00,South,180,1.1,0.0,44,0.00,,,-99.99,Homeseer,2013-10-21 21:57:00,
2013-10-21 18:07:00,85.6,66.6,0.00,SSE,157,0.0,2.0,45,0.00,,,-99.99,Homeseer,2013-10-21 22:07:00,
2013-10-21 18:17:00,85.3,66.4,0.00,SSE,157,2.2,4.3,45,0.00,,,-99.99,Homeseer,2013-10-21 22:17:00,
2013-10-21 18:27:00,84.9,66.5,0.00,SSE,157,2.2,3.6,46,0.00,,,-99.99,Homeseer,2013-10-21 22:27:00,
2013-10-21 18:37:00,84.7,66.8,0.00,SW,225,1.6,1.6,47,0.00,,,-99.99,Homeseer,2013-10-21 22:37:00,
2013-10-21 18:47:00,84.6,67.2,0.00,SSE,157,2.0,2.0,48,0.00,,,-99.99,Homeseer,2013-10-21 22:47:00,
2013-10-21 18:57:00,84.2,67.3,0.00,South,180,2.2,2.5,49,0.00,,,-99.99,Homeseer,2013-10-21 22:57:00,
2013-10-21 19:07:00,84.2,67.3,0.00,South,180,0.0,0.0,49,0.00,,,-99.99,Homeseer,2013-10-21 23:07:00,
2013-10-21 19:17:00,84.0,68.0,0.00,South,180,0.9,3.4,51,0.00,,,-99.99,Homeseer,2013-10-21 23:17:00,
2013-10-21 19:27:00,83.8,68.3,0.00,South,180,0.0,3.6,52,0.00,,,-99.99,Homeseer,2013-10-21 23:27:00,
2013-10-21 19:37:00,83.8,68.3,0.00,North,0,0.0,3.8,52,0.00,,,-99.99,Homeseer,2013-10-21 23:37:00,
2013-10-21 19:47:00,83.7,68.6,0.00,South,180,1.6,0.0,53,0.00,,,-99.99,Homeseer,2013-10-21 23:47:00,
2013-10-21 19:57:00,83.7,69.0,0.00,North,0,0.9,0.0,54,0.00,,,-99.99,Homeseer,2013-10-21 23:57:00,
2013-10-21 20:07:00,83.7,69.4,0.00,South,180,0.0,2.9,55,0.00,,,-99.99,Homeseer,2013-10-22 00:07:00,
2013-10-21 20:17:00,83.5,69.7,0.00,SSE,157,1.3,1.3,56,0.00,,,-99.99,Homeseer,2013-10-22 00:17:00,
2013-10-21 20:27:00,83.3,69.1,0.00,South,180,1.1,0.0,55,0.00,,,-99.99,Homeseer,2013-10-22 00:27:00,
2013-10-21 20:37:00,83.3,69.1,0.00,SE,135,1.6,0.0,55,0.00,,,-99.99,Homeseer,2013-10-22 00:37:00,
2013-10-21 20:47:00,83.3,68.7,0.00,South,180,0.9,0.0,54,0.00,,,-99.99,Homeseer,2013-10-22 00:47:00,
2013-10-21 20:57:00,83.1,68.9,0.00,East,90,0.0,0.0,55,0.00,,,-99.99,Homeseer,2013-10-22 00:57:00,
2013-10-21 21:07:00,83.1,68.9,0.00,North,0,0.0,0.9,55,0.00,,,-99.99,Homeseer,2013-10-22 01:07:00,
2013-10-21 21:17:00,82.9,69.1,0.00,SSE,157,0.9,0.0,56,0.00,,,-99.99,Homeseer,2013-10-22 01:17:00,
2013-10-21 21:27:00,82.9,69.1,0.00,SSE,157,2.2,0.0,56,0.00,,,-99.99,Homeseer,2013-10-22 01:27:00,
2013-10-21 21:37:00,82.9,69.1,0.00,South,180,2.7,2.7,56,0.00,,,-99.99,Homeseer,2013-10-22 01:37:00,
2013-10-21 21:47:00,82.9,69.1,0.00,South,180,1.6,2.9,56,0.00,,,-99.99,Homeseer,2013-10-22 01:47:00,
2013-10-21 21:57:00,82.9,69.1,0.00,South,180,0.0,0.0,56,0.00,,,-99.99,Homeseer,2013-10-22 01:57:00,
2013-10-21 22:07:00,82.8,69.0,0.00,North,0,1.6,0.0,56,0.00,,,-99.99,Homeseer,2013-10-22 02:07:00,
2013-10-21 22:17:00,82.8,69.0,0.00,North,0,0.9,0.0,56,0.00,,,-99.99,Homeseer,2013-10-22 02:17:00,
2013-10-21 22:27:00,82.8,69.0,0.00,North,0,1.1,1.3,56,0.00,,,-99.99,Homeseer,2013-10-22 02:27:00,
2013-10-21 22:37:00,82.8,69.0,0.00,SSE,157,1.6,1.6,56,0.00,,,-99.99,Homeseer,2013-10-22 02:37:00,
2013-10-21 22:47:00,82.8,69.0,0.00,South,180,0.0,0.0,56,0.00,,,-99.99,Homeseer,2013-10-22 02:47:00,
2013-10-21 22:57:00,82.8,69.0,0.00,SW,225,0.0,0.0,56,0.00,,,-99.99,Homeseer,2013-10-22 02:57:00,
2013-10-21 23:07:00,82.6,69.2,0.00,SSE,157,0.0,0.0,57,0.00,,,-99.99,Homeseer,2013-10-22 03:07:00,
2013-10-21 23:17:00,82.8,69.0,0.00,SSE,157,0.0,0.0,56,0.00,,,-99.99,Homeseer,2013-10-22 03:17:00,
2013-10-21 23:27:00,82.6,68.8,0.00,South,180,0.9,0.0,56,0.00,,,-99.99,Homeseer,2013-10-22 03:27:00,
2013-10-21 23:37:00,82.6,69.2,0.00,South,180,1.1,2.5,57,0.00,,,-99.99,Homeseer,2013-10-22 03:37:00,
2013-10-21 23:47:00,81.9,69.4,0.00,North,0,1.1,1.1,59,0.00,,,-99.99,Homeseer,2013-10-22 03:47:00,
2013-10-21 23:57:00,81.1,70.5,0.00,South,180,1.6,0.0,64,0.00,,,-99.99,Homeseer,2013-10-22 03:57:00,